When you browse on this site, cookies collect data to enhance your experience and personalize the content and advertising you see.
Visit our Privacy Policy to learn more. By continuing to use the site, you agree to this use of cookies and data.
  • In Sweden
  • List of Countries
  • For 7 days
  • Water Temperature
  • Weather Map
  • Weather Widgets
  • user-avatar
    Login

    Hourly Weather Cancún

    Today, 23 February, Sunday

    Time Temperature Precipitation Wind Pressure Humidity
    00:00 +18°C° 0 mm 4 mps 764 mmHg 88%
    01:00 +18°C° 0.1 mm 4 mps 764 mmHg 89%
    02:00 +18°C° 0.1 mm 4 mps 763 mmHg 90%
    03:00 +18°C° 0.1 mm 4 mps 763 mmHg 91%
    04:00 +18°C° 0.2 mm 4 mps 763 mmHg 93%
    05:00 +18°C° 0.2 mm 4 mps 763 mmHg 94%
    06:00 +19°C° 0 mm 4 mps 763 mmHg 95%
    07:00 +21°C° 0.3 mm 4 mps 763 mmHg 90%
    08:00 +22°C° 0.3 mm 4 mps 764 mmHg 85%
    09:00 +25°C° 0.3 mm 4 mps 764 mmHg 80%
    10:00 +27°C° 0.1 mm 4 mps 764 mmHg 71%
    11:00 +28°C° 0.1 mm 4 mps 763 mmHg 62%
    12:00 +30°C° 0.1 mm 4 mps 763 mmHg 52%
    13:00 +30°C° 0 mm 4 mps 762 mmHg 52%
    14:00 +30°C° 0 mm 4 mps 761 mmHg 51%
    15:00 +29°C° 0 mm 4 mps 761 mmHg 50%
    16:00 +27°C° 0 mm 3 mps 761 mmHg 58%
    17:00 +25°C° 0 mm 3 mps 761 mmHg 67%
    18:00 +24°C° 0 mm 3 mps 761 mmHg 75%
    19:00 +22°C° 0 mm 3 mps 761 mmHg 79%
    20:00 +21°C° 0 mm 4 mps 761 mmHg 82%
    21:00 +21°C° 0 mm 4 mps 762 mmHg 86%
    22:00 +21°C° 0 mm 4 mps 761 mmHg 86%
    23:00 +21°C° 0 mm 4 mps 761 mmHg 86%

    Tomorrow, 24 February, Monday

    Time Temperature Precipitation Wind Pressure Humidity
    00:00 +21°C° 0 mm 3 mps 761 mmHg 86%
    01:00 +21°C° 0 mm 4 mps 760 mmHg 88%
    02:00 +21°C° 0 mm 4 mps 760 mmHg 90%
    03:00 +21°C° 0 mm 4 mps 760 mmHg 92%
    04:00 +21°C° 0 mm 4 mps 760 mmHg 92%
    05:00 +21°C° 0 mm 4 mps 760 mmHg 92%
    06:00 +22°C° 0 mm 4 mps 760 mmHg 92%
    07:00 +25°C° 0 mm 5 mps 760 mmHg 82%
    08:00 +27°C° 0 mm 5 mps 760 mmHg 72%
    09:00 +29°C° 0 mm 6 mps 761 mmHg 62%
    10:00 +30°C° 0 mm 6 mps 760 mmHg 59%
    11:00 +32°C° 0 mm 5 mps 760 mmHg 56%
    12:00 +33°C° 0 mm 5 mps 759 mmHg 53%
    13:00 +32°C° 0 mm 5 mps 758 mmHg 54%
    14:00 +32°C° 0 mm 5 mps 758 mmHg 55%
    15:00 +32°C° 0 mm 5 mps 757 mmHg 56%
    16:00 +29°C° 0.1 mm 5 mps 757 mmHg 64%
    17:00 +28°C° 0.1 mm 5 mps 757 mmHg 71%
    18:00 +26°C° 0.1 mm 4 mps 757 mmHg 78%
    19:00 +25°C° 0 mm 4 mps 758 mmHg 83%
    20:00 +25°C° 0 mm 4 mps 758 mmHg 88%
    21:00 +24°C° 0 mm 3 mps 759 mmHg 94%
    22:00 +24°C° 0 mm 3 mps 758 mmHg 94%
    23:00 +24°C° 0 mm 3 mps 758 mmHg 95%

    Day after tomorrow, 25 February, Tuesday

    Time Temperature Precipitation Wind Pressure Humidity
    00:00 +22°C° 0 mm 3 mps 758 mmHg 96%
    01:00 +23°C° 0 mm 4 mps 758 mmHg 96%
    02:00 +23°C° 0 mm 4 mps 757 mmHg 96%
    03:00 +23°C° 0 mm 4 mps 757 mmHg 96%
    04:00 +23°C° 0 mm 4 mps 757 mmHg 94%
    05:00 +23°C° 0 mm 5 mps 757 mmHg 92%
    06:00 +25°C° 0 mm 5 mps 757 mmHg 90%
    07:00 +26°C° 0 mm 5 mps 758 mmHg 80%
    08:00 +28°C° 0 mm 6 mps 758 mmHg 71%
    09:00 +30°C° 0 mm 6 mps 759 mmHg 61%
    10:00 +32°C° 0 mm 6 mps 758 mmHg 57%
    11:00 +33°C° 0 mm 6 mps 758 mmHg 54%
    12:00 +34°C° 0 mm 6 mps 757 mmHg 50%
    13:00 +34°C° 0 mm 6 mps 757 mmHg 50%
    14:00 +34°C° 0 mm 6 mps 756 mmHg 50%
    15:00 +34°C° 0 mm 5 mps 756 mmHg 50%
    16:00 +32°C° 0 mm 5 mps 756 mmHg 59%
    17:00 +29°C° 0 mm 4 mps 756 mmHg 67%
    18:00 +27°C° 0 mm 4 mps 756 mmHg 76%
    19:00 +26°C° 0 mm 4 mps 757 mmHg 82%
    20:00 +25°C° 0 mm 4 mps 758 mmHg 89%
    21:00 +25°C° 0 mm 4 mps 758 mmHg 96%
    22:00 +23°C° 0 mm 4 mps 758 mmHg 96%
    23:00 +23°C° 0 mm 4 mps 758 mmHg 96%

    26 February, Wednesday

    Time Temperature Precipitation Wind Pressure Humidity
    00:00 +24°C° 0 mm 3 mps 758 mmHg 97%
    01:00 +24°C° 0 mm 3 mps 758 mmHg 97%
    02:00 +24°C° 0 mm 3 mps 758 mmHg 97%
    03:00 +24°C° 0 mm 2 mps 758 mmHg 98%
    04:00 +24°C° 0 mm 2 mps 758 mmHg 97%
    05:00 +22°C° 0 mm 3 mps 758 mmHg 97%
    06:00 +22°C° 0 mm 3 mps 759 mmHg 97%
    07:00 +26°C° 0 mm 3 mps 759 mmHg 84%
    08:00 +28°C° 0 mm 3 mps 760 mmHg 72%
    09:00 +31°C° 0 mm 3 mps 761 mmHg 59%
    10:00 +31°C° 0.3 mm 3 mps 760 mmHg 60%
    11:00 +31°C° 0.3 mm 3 mps 760 mmHg 60%
    12:00 +32°C° 0.3 mm 2 mps 760 mmHg 60%
    13:00 +30°C° 1 mm 2 mps 760 mmHg 67%
    14:00 +29°C° 1 mm 3 mps 760 mmHg 74%
    15:00 +27°C° 1 mm 3 mps 759 mmHg 81%
    16:00 +26°C° 0.8 mm 5 mps 760 mmHg 83%
    17:00 +24°C° 0.8 mm 7 mps 760 mmHg 86%
    18:00 +23°C° 0.8 mm 9 mps 761 mmHg 88%
    19:00 +23°C° 0.1 mm 9 mps 762 mmHg 84%
    20:00 +23°C° 0.1 mm 9 mps 763 mmHg 79%
    21:00 +23°C° 0.1 mm 8 mps 764 mmHg 75%
    22:00 +22°C° 0 mm 8 mps 764 mmHg 74%
    23:00 +22°C° 0 mm 8 mps 764 mmHg 72%

    27 February, Thursday

    Time Temperature Precipitation Wind Pressure Humidity
    00:00 +22°C° 0 mm 7 mps 764 mmHg 71%
    01:00 +22°C° 0 mm 7 mps 764 mmHg 73%
    02:00 +21°C° 0 mm 6 mps 764 mmHg 75%
    03:00 +21°C° 0 mm 6 mps 763 mmHg 77%
    04:00 +20°C° 0.1 mm 6 mps 764 mmHg 79%
    05:00 +20°C° 0.1 mm 6 mps 764 mmHg 81%
    06:00 +20°C° 0.1 mm 6 mps 764 mmHg 83%
    07:00 +21°C° 0 mm 6 mps 765 mmHg 76%
    08:00 +22°C° 0 mm 6 mps 765 mmHg 69%
    09:00 +23°C° 0 mm 6 mps 766 mmHg 62%
    10:00 +24°C° 0 mm 6 mps 766 mmHg 59%
    11:00 +24°C° 0 mm 6 mps 766 mmHg 56%
    12:00 +26°C° 0 mm 6 mps 765 mmHg 52%
    13:00 +26°C° 0 mm 6 mps 765 mmHg 51%
    14:00 +26°C° 0 mm 6 mps 765 mmHg 50%
    15:00 +26°C° 0 mm 5 mps 764 mmHg 49%
    16:00 +23°C° 0 mm 5 mps 765 mmHg 55%
    17:00 +22°C° 0 mm 5 mps 765 mmHg 61%
    18:00 +20°C° 0 mm 5 mps 765 mmHg 67%
    19:00 +19°C° 0 mm 5 mps 766 mmHg 71%
    20:00 +18°C° 0 mm 4 mps 766 mmHg 75%
    21:00 +17°C° 0 mm 4 mps 767 mmHg 78%
    22:00 +17°C° 0 mm 4 mps 766 mmHg 79%
    23:00 +17°C° 0 mm 4 mps 766 mmHg 79%

    28 February, Friday

    Time Temperature Precipitation Wind Pressure Humidity
    00:00 +17°C° 0 mm 4 mps 766 mmHg 80%
    01:00 +17°C° 0 mm 4 mps 766 mmHg 80%
    02:00 +17°C° 0 mm 4 mps 766 mmHg 81%
    03:00 +16°C° 0 mm 5 mps 765 mmHg 81%
    04:00 +16°C° 0 mm 5 mps 766 mmHg 81%
    05:00 +16°C° 0 mm 5 mps 766 mmHg 81%
    06:00 +16°C° 0 mm 5 mps 766 mmHg 81%
    07:00 +19°C° 0 mm 5 mps 767 mmHg 74%
    08:00 +21°C° 0 mm 5 mps 767 mmHg 68%
    09:00 +23°C° 0 mm 6 mps 768 mmHg 61%
    10:00 +23°C° 0 mm 6 mps 768 mmHg 59%
    11:00 +23°C° 0 mm 5 mps 767 mmHg 58%
    12:00 +23°C° 0 mm 5 mps 767 mmHg 56%
    13:00 +23°C° 0 mm 5 mps 767 mmHg 57%
    14:00 +23°C° 0 mm 5 mps 766 mmHg 58%
    15:00 +22°C° 0 mm 6 mps 766 mmHg 59%
    16:00 +22°C° 0 mm 5 mps 766 mmHg 62%
    17:00 +21°C° 0 mm 5 mps 766 mmHg 64%
    18:00 +20°C° 0 mm 5 mps 766 mmHg 67%
    19:00 +19°C° 0 mm 4 mps 767 mmHg 69%
    20:00 +19°C° 0 mm 4 mps 767 mmHg 70%
    21:00 +19°C° 0 mm 4 mps 768 mmHg 72%
    22:00 +18°C° 0 mm 4 mps 768 mmHg 74%
    23:00 +18°C° 0 mm 4 mps 767 mmHg 76%
    Show more